ICEYE-X60

导读

ICEYE-X60是芬兰冰眼公司(ICEYE)于2025年11月28日发射的合成孔径雷达(SAR)遥感卫星,隶属于冰眼X系列卫星星座。该卫星依托冰眼成熟的小卫星平台技术,搭载高性能SAR系统,具备25cm超高分辨率成像能力,支持多种成像模式。可实现港口监控、溢油检测、海冰观测、自然灾害应对等高频次持续监测,为全球用户提供及时精准的遥感数据服务,进一步完善了冰眼商业SAR卫星星座的全球观测能力。

基本信息
目录编号:
66753
目录名称:
ICEYE-X60
国际标识:
2025-276CR
轨道中心:
EARTH
卫星名称:
ICEYE-X60
卫星全名:
ICEYE-X60
卫星状态:
在轨 (已飞行196 天)
发射日期:
2025-11-28 UTC
国别 :
(GR)
星等 :
--
轨道信息
数据来源 国际轨道数据
星历时间: 2026-06-12T00:42:42+0800
1天前
查看轨道信息
半长轴: 6911.302km
偏心率: 0.0003227
轨道倾角: 97.422°
近地点辐角 74.656°
升交点赤经 235.527°
平近点角 285.503°
近地点: 530.934km
远地点: 535.396km
周期: 95.301分钟
每日圈数: 15.109948
详细信息
使用方式:
暂无
2D轨道图
3D轨道图
轨道高度分析图
轨道倾角分析图
轨道综合分析图
查看轨道综合分析图